User: anonymous   Login
Location: Unspecified
(0.0000°N, 0.0000°E)
Time: 20:37:21
(UTC+00:00)
Language:

UFO 9 - Orbit

View from above orbital plane
View from above orbital plane
View from above satellite
View from above satellite

Ground track
Ground track

The orbit data is extracted from the following two-line orbital elements,

1 25501U 98058A   17224.73137446 0.00000000  00000-0  00000-0 0    07
2 25501   8.0256  33.7463 0011460 294.2345  65.6369  0.98173286    02
Epoch (UTC): 12 August 2017 17:33:10
Eccentricity: 0.0011460
inclination: 8.0256°
perigee height: 36336 km
apogee height: 36434 km
right ascension of ascending node: 33.7463°
argument of perigee: 294.2345°
revolutions per day: 0.98173286
mean anomaly at epoch: 65.6369°
orbit number at epoch: 0

The dashed part of the orbit path shows where the satellite is in the earth's shadow,  

DLR